Location: Azat
(46.0765°N, 1.7600°E)
Time: 22:51:00
(UTC+00:00)

STARLINK-1241 - Pass Details

Date: 09 April 2020
Orbit: 548 x 551 km, 53.0° (Epoch: 05 June)

Event Time Altitude Azimuth Distance (km) Brightness Sun altitude
Rises 20:00:18 0° 300° (WNW) 2,730 9.1 -15.0°
Reaches altitude 10° 20:02:34 10° 304° (NW) 1,834 7.7 -15.3°
Maximum altitude 20:06:41 57° 24° (NNE) 655 4.0 -16.0°
Enters shadow 20:08:37 29° 92° (E) 1,039 4.5 -16.2°
